Meteo Giornale » Osservazioni meteo Stati Uniti (USA) » Roxboro Person
ore: 04:50 - Osservazioni Meteo Roxboro Person
Lat. 36° 17' N Lon. 78° 59' W Alt. 186 metri s.l.m.
22 °C
Sereno
Temp. 24 Ore
18 °C
33 °C
Nord
0 Km/h
Dew point 21 °C
Umidità 94 %
Visibilità 10 Km
Il sole sorge alle ore 06:47
Il sole tramonta alle ore 19:44
| Data e Ora | Cielo e Fenomeni | T °C | DP °C | Um. % | Pres. hPa | Vis. km | Vento km/h | |
|---|---|---|---|---|---|---|---|---|
| Oggi h: 04:50 | Sereno | 22 | 21 | 94 | 1019 | 10 | N 0 | |
| Oggi h: 04:30 | Sereno | 22 | 21 | 94 | 1019 | 11 | N 0 | |
| Oggi h: 04:10 | Sereno | 22 | 21 | 94 | 1019 | 10 | N 5.5 | |
| Oggi h: 03:50 | Sereno | 21 | 21 | 100 | 1019 | 11 | N 0 | |
| Oggi h: 03:30 | Foschia | 21 | 21 | 100 | 1020 | 6 | N 0 | |
| Oggi h: 03:10 | Foschia | 22 | 22 | 100 | 1020 | 5 | N 0 | |
| Oggi h: 02:50 | Sereno | 21 | 21 | 100 | 1020 | 10 | N 0 | |
| Oggi h: 02:30 | Sereno | 22 | 22 | 100 | 1020 | 10 | N 0 | |
| Oggi h: 02:10 | Sereno | 22 | 22 | 100 | 1020 | 10 | N 0 | |
| Oggi h: 01:50 | Sereno | 22 | 22 | 100 | 1020 | 10 | N 0 | |
| Oggi h: 01:30 | Sereno | 23 | 22 | 94 | 1020 | 10 | N 0 | |
| Oggi h: 01:10 | Nuvoloso | 23 | 22 | 94 | 1020 | 10 | N 0 | |
| Oggi h: 00:50 | Coperto | 23 | 22 | 94 | 1020 | 10 | N 0 | |
| Oggi h: 00:30 | Coperto | 24 | 22 | 88 | 1020 | 10 | N 0 | |
| Oggi h: 00:10 | Coperto | 24 | 22 | 88 | 1020 | 10 | N 0 | |
| Ieri h: 23:50 | Coperto | 25 | 23 | 88 | 1020 | 11 | N 0 | |
| Ieri h: 23:30 | Coperto | 24 | 22 | 88 | 1020 | 10 | N 0 | |
| Ieri h: 23:10 | Coperto | 25 | 23 | 88 | 1020 | 10 | N 0 | |
| Ieri h: 22:50 | Coperto | 25 | 23 | 88 | 1020 | 10 | N 0 | |
| Ieri h: 22:30 | Coperto | 25 | 23 | 88 | 1020 | 10 | N 0 | |
| Ieri h: 22:10 | Coperto | 24 | 22 | 88 | 1020 | 10 | N 0 | |
| Ieri h: 21:50 | Coperto | 25 | 22 | 83 | 1020 | 10 | N 0 | |
| Ieri h: 21:30 | Molto Nuvoloso | 23 | 22 | 94 | 1020 | 10 | N 0 | |
| Ieri h: 21:10 | Molto Nuvoloso | 24 | 22 | 88 | 1019 | 10 | N 0 | |
| Ieri h: 20:50 | Molto Nuvoloso | 25 | 22 | 83 | 1019 | 10 | N 0 | |
| Ieri h: 20:30 | Nuvoloso | 25 | 22 | 83 | 1019 | 10 | N 0 | |
| Ieri h: 20:10 | Sereno | 26 | 22 | 78 | 1019 | 10 | N 0 | |
| Ieri h: 19:50 | Sereno | 26 | 22 | 78 | 1019 | 10 | N 0 | |
| Ieri h: 19:30 | Sereno | 28 | 22 | 69 | 1019 | 10 | N 0 | |
| Ieri h: 19:10 | Sereno | 29 | 22 | 66 | 1019 | 10 | N 0 | |
| Ieri h: 18:50 | Sereno | 31 | 22 | 58 | 1019 | 10 | N 5.5 | |
| Ieri h: 18:30 | Sereno | 31 | 21 | 55 | 1019 | 10 | N 5.5 | |
| Ieri h: 18:10 | Sereno | 31 | 21 | 55 | 1019 | 10 | S/SE 7.4 | |
| Ieri h: 17:50 | Sereno | 31 | 21 | 55 | 1019 | 10 | S 7.4 | |
| Ieri h: 17:30 | Sereno | 30 | 21 | 58 | 1019 | 10 | S/SE 7.4 | |
| Ieri h: 17:10 | Sereno | 29 | 21 | 62 | 1019 | 10 | SE 7.4 | |
| Ieri h: 16:50 | Sereno | 30 | 22 | 62 | 1019 | 10 | N 5.5 | |
| Ieri h: 16:30 | Nuvoloso | 30 | 21 | 58 | 1019 | 10 | SE 11.1 | |
| Ieri h: 16:10 | Molto Nuvoloso | 31 | 21 | 55 | 1019 | 10 | S 7.4 | |
| Ieri h: 15:50 | Molto Nuvoloso | 31 | 21 | 55 | 1019 | 10 | SO 7.4 | |
| Ieri h: 15:30 | Molto Nuvoloso | 33 | 21 | 49 | 1019 | 10 | S/SO 9.3 | |
| Ieri h: 15:10 | Molto Nuvoloso | 33 | 21 | 49 | 1020 | 10 | S/SO 13 | |
| Ieri h: 14:50 | Coperto | 32 | 21 | 52 | 1020 | 10 | SO 7.4 | |
| Ieri h: 14:30 | Molto Nuvoloso | 33 | 21 | 49 | 1020 | 10 | N 0 | |
| Ieri h: 14:10 | Sereno | 33 | 21 | 49 | 1020 | 10 | S 7.4 | |
| Ieri h: 13:50 | Sereno | 32 | 20 | 49 | 1020 | 10 | N 0 | |
| Ieri h: 13:30 | Sereno | 32 | 20 | 49 | 1020 | 10 | SO 7.4 | |
| Ieri h: 13:10 | Sereno | 32 | 21 | 52 | 1021 | 10 | E/SE 9.3 | |
| Ieri h: 12:50 | Sereno | 31 | 21 | 55 | 1021 | 10 | N 0 | |
| Ieri h: 12:30 | Sereno | 31 | 21 | 55 | 1021 | 10 | N 5.5 | |
| Ieri h: 12:10 | Sereno | 31 | 22 | 58 | 1021 | 10 | N 5.5 | |
| Ieri h: 11:50 | Sereno | 30 | 22 | 62 | 1021 | 10 | N 5.5 | |
| Ieri h: 11:30 | Sereno | 30 | 22 | 62 | 1021 | 10 | O/SO 7.4 | |
| Ieri h: 11:10 | Sereno | 29 | 22 | 66 | 1021 | 10 | O/SO 7.4 | |
| Ieri h: 10:50 | Sereno | 28 | 22 | 69 | 1021 | 10 | N 0 | |
| Ieri h: 10:30 | Sereno | 27 | 22 | 74 | 1021 | 10 | O 7.4 | |
| Ieri h: 10:10 | Sereno | 27 | 22 | 74 | 1021 | 10 | N/NO 7.4 | |
| Ieri h: 09:50 | Sereno | 26 | 22 | 78 | 1021 | 10 | O/SO 9.3 | |
| Ieri h: 09:30 | Sereno | 26 | 22 | 78 | 1021 | 10 | O 7.4 | |
| Ieri h: 09:10 | Sereno | 25 | 22 | 83 | 1021 | 10 | O/SO 7.4 | |
| Ieri h: 08:50 | Sereno | 23 | 22 | 94 | 1021 | 10 | N 0 | |
| Ieri h: 08:30 | Sereno | 22 | 21 | 94 | 1021 | 10 | N 0 | |
| Ieri h: 08:10 | Sereno | 21 | 20 | 94 | 1021 | 10 | N 0 | |
| Ieri h: 07:50 | Sereno | 19 | 19 | 100 | 1021 | 10 | N 0 | |
| Ieri h: 07:30 | Foschia | 18 | 18 | 100 | 1021 | 8 | N 0 | |
| Ieri h: 07:10 | Foschia | 18 | 18 | 100 | 1021 | 8 | N 0 | |
| Ieri h: 06:50 | Foschia | 18 | 18 | 100 | 1021 | 3 | N 0 | |
| Ieri h: 06:30 | Foschia | 18 | 18 | 100 | 1021 | 2 | N 0 | |
| Ieri h: 06:10 | Nebbia | 18 | 18 | 100 | 1021 | 2 | N 0 | |
| Ieri h: 05:50 | Foschia | 18 | 18 | 100 | 1021 | 6 | N 0 | |



